Wetterdaten: Mittwoch, 14.01.2015
Datum Zeit Auen-Temp. Luftfeuchte Luftfeuchte Luftdruck Regen Wind Richtung Richtung Taupunkt Windchill Windben
14.01.2015 00:00 1,8 C 52 % 0 % 1016,3 hPa 0,0 l/m 2,9 km/h (1 Bft) W-SW 247 -7,0 C 2,7 C 4,8 km/h (1 Bft)
14.01.2015 00:05 1,7 C 53 % 0 % 1016,3 hPa 0,0 l/m 2,3 km/h (1 Bft) S 180 -6,8 C 2,4 C 0,0 km/h (0 Bft)
14.01.2015 00:10 1,1 C 55 % 0 % 1016,3 hPa 0,0 l/m 0,6 km/h (0 Bft) W-SW 247 -6,9 C 1,7 C 0,0 km/h (0 Bft)
14.01.2015 00:15 0,7 C 55 % 0 % 1016,3 hPa 0,0 l/m 0,2 km/h (0 Bft) W 270 -7,3 C 1,2 C 0,0 km/h (0 Bft)
14.01.2015 00:20 0,4 C 56 % 0 % 1016,0 hPa 0,0 l/m 0,0 km/h (0 Bft) W 270 -7,3 C 0,6 C 0,0 km/h (0 Bft)
14.01.2015 00:25 0,2 C 57 % 0 % 1016,0 hPa 0,0 l/m 0,0 km/h (0 Bft) W 270 -7,3 C 0,2 C 1,6 km/h (1 Bft)
14.01.2015 00:30 -0,1 C 57 % 0 % 1016,0 hPa 0,0 l/m 0,0 km/h (0 Bft) W 270 -7,6 C -0,4 C 0,0 km/h (0 Bft)
14.01.2015 00:35 0,0 C 58 % 0 % 1016,0 hPa 0,0 l/m 0,0 km/h (0 Bft) S 180 -7,3 C -0,6 C 0,0 km/h (0 Bft)
14.01.2015 00:40 0,0 C 59 % 0 % 1015,9 hPa 0,0 l/m 0,2 km/h (0 Bft) W 270 -7,0 C -0,5 C 3,5 km/h (1 Bft)
14.01.2015 00:45 -0,5 C 59 % 0 % 1015,9 hPa 0,0 l/m 0,2 km/h (0 Bft) W 270 -7,5 C -0,8 C 0,0 km/h (0 Bft)
14.01.2015 00:50 -0,9 C 60 % 0 % 1015,9 hPa 0,0 l/m 0,2 km/h (0 Bft) W 270 -7,7 C -1,3 C 0,0 km/h (0 Bft)
14.01.2015 00:55 -1,0 C 61 % 0 % 1015,9 hPa 0,0 l/m 0,0 km/h (0 Bft) W 270 -7,5 C -1,5 C 0,0 km/h (0 Bft)
14.01.2015 01:00 -1,3 C 62 % 0 % 1015,6 hPa 0,0 l/m 0,0 km/h (0 Bft) W 270 -7,6 C -1,9 C 0,0 km/h (0 Bft)
14.01.2015 01:05 -1,2 C 62 % 0 % 1015,6 hPa 0,0 l/m 0,0 km/h (0 Bft) W 270 -7,5 C -2,2 C 0,0 km/h (0 Bft)
14.01.2015 01:10 -0,7 C 65 % 0 % 1015,6 hPa 0,0 l/m 0,0 km/h (0 Bft) S 180 -6,4 C -1,9 C 0,0 km/h (0 Bft)
14.01.2015 01:15 -0,2 C 64 % 0 % 1015,6 hPa 0,0 l/m 0,5 km/h (0 Bft) S-SW 202 -6,2 C -1,5 C 2,4 km/h (1 Bft)
14.01.2015 01:20 0,0 C 63 % 0 % 1015,4 hPa 0,0 l/m 1,8 km/h (1 Bft) SO 135 -6,2 C -1,2 C 8,4 km/h (2 Bft)
14.01.2015 01:25 0,2 C 63 % 0 % 1015,4 hPa 0,0 l/m 2,3 km/h (1 Bft) W-NW 292 -6,0 C -0,9 C 4,5 km/h (1 Bft)
14.01.2015 01:30 -0,1 C 63 % 0 % 1015,4 hPa 0,0 l/m 1,4 km/h (1 Bft) NW 315 -6,3 C -0,7 C 0,0 km/h (0 Bft)
14.01.2015 01:35 -0,2 C 63 % 0 % 1015,4 hPa 0,0 l/m 1,1 km/h (1 Bft) W 270 -6,4 C -0,8 C 0,0 km/h (0 Bft)
14.01.2015 01:40 -0,1 C 64 % 0 % 1015,2 hPa 0,0 l/m 0,6 km/h (0 Bft) N-NW 337 -6,1 C -0,8 C 0,0 km/h (0 Bft)
14.01.2015 01:45 -0,5 C 63 % 0 % 1015,2 hPa 0,0 l/m 0,6 km/h (0 Bft) W-SW 247 -6,7 C -1,0 C 2,6 km/h (1 Bft)
14.01.2015 01:50 -0,3 C 63 % 0 % 1015,2 hPa 0,0 l/m 1,0 km/h (0 Bft) W-SW 247 -6,5 C -1,0 C 2,1 km/h (1 Bft)
14.01.2015 01:55 -0,4 C 63 % 0 % 1015,2 hPa 0,0 l/m 0,8 km/h (0 Bft) W-SW 247 -6,6 C -1,0 C 0,0 km/h (0 Bft)
14.01.2015 02:00 -0,1 C 63 % 0 % 1015,2 hPa 0,0 l/m 0,2 km/h (0 Bft) W-SW 247 -6,3 C -1,0 C 0,0 km/h (0 Bft)
14.01.2015 02:05 -0,3 C 64 % 0 % 1015,2 hPa 0,0 l/m 0,0 km/h (0 Bft) W 270 -6,3 C -0,9 C 0,0 km/h (0 Bft)
14.01.2015 02:10 -0,7 C 64 % 0 % 1015,2 hPa 0,0 l/m 0,6 km/h (0 Bft) W 270 -6,6 C -1,2 C 3,9 km/h (1 Bft)
14.01.2015 02:15 -0,3 C 65 % 0 % 1015,2 hPa 0,0 l/m 2,4 km/h (1 Bft) S 180 -6,1 C -1,5 C 8,0 km/h (2 Bft)
14.01.2015 02:20 1,1 C 62 % 0 % 1015,9 hPa 0,0 l/m 4,7 km/h (1 Bft) S 180 -5,3 C -1,8 C 9,2 km/h (2 Bft)
14.01.2015 02:25 1,5 C 59 % 0 % 1015,9 hPa 0,0 l/m 4,2 km/h (1 Bft) SW 225 -5,6 C -0,9 C 2,1 km/h (1 Bft)
14.01.2015 02:30 2,2 C 58 % 0 % 1015,9 hPa 0,0 l/m 3,1 km/h (1 Bft) W-SW 247 -5,2 C 0,9 C 2,6 km/h (1 Bft)
14.01.2015 02:35 2,2 C 57 % 0 % 1015,9 hPa 0,0 l/m 3,7 km/h (1 Bft) SW 225 -5,4 C 1,0 C 4,7 km/h (1 Bft)
14.01.2015 02:40 2,4 C 56 % 0 % 1015,9 hPa 0,0 l/m 3,2 km/h (1 Bft) S 180 -5,5 C 1,7 C 3,2 km/h (1 Bft)
14.01.2015 02:45 2,2 C 56 % 0 % 1015,9 hPa 0,0 l/m 2,4 km/h (1 Bft) S-SW 202 -5,6 C 2,2 C 1,9 km/h (1 Bft)
14.01.2015 02:50 2,4 C 56 % 0 % 1015,9 hPa 0,0 l/m 1,8 km/h (1 Bft) S-SO 157 -5,5 C 2,3 C 0,0 km/h (0 Bft)
14.01.2015 02:55 2,5 C 56 % 0 % 1015,9 hPa 0,0 l/m 1,1 km/h (1 Bft) S-SO 157 -5,4 C 2,3 C 0,0 km/h (0 Bft)
14.01.2015 03:00 2,3 C 56 % 0 % 1015,7 hPa 0,0 l/m 0,3 km/h (0 Bft) W-SW 247 -5,6 C 2,4 C 0,0 km/h (0 Bft)
14.01.2015 03:05 1,9 C 56 % 0 % 1015,7 hPa 0,0 l/m 0,3 km/h (0 Bft) W-SW 247 -5,9 C 2,3 C 2,3 km/h (1 Bft)
14.01.2015 03:10 1,6 C 57 % 0 % 1015,7 hPa 0,0 l/m 1,0 km/h (0 Bft) W-SW 247 -6,0 C 1,7 C 4,2 km/h (1 Bft)
14.01.2015 03:15 1,6 C 58 % 0 % 1015,7 hPa 0,0 l/m 1,1 km/h (1 Bft) W 270 -5,8 C 1,6 C 0,0 km/h (0 Bft)
14.01.2015 03:20 1,2 C 59 % 0 % 1015,8 hPa 0,0 l/m 1,0 km/h (0 Bft) W-SW 247 -5,9 C 1,3 C 2,6 km/h (1 Bft)
14.01.2015 03:25 1,6 C 59 % 0 % 1015,8 hPa 0,0 l/m 1,0 km/h (0 Bft) W-SW 247 -5,5 C 1,2 C 2,7 km/h (1 Bft)
14.01.2015 03:30 2,1 C 59 % 0 % 1015,8 hPa 0,0 l/m 1,4 km/h (1 Bft) NW 315 -5,1 C 1,5 C 3,7 km/h (1 Bft)
14.01.2015 03:35 1,6 C 59 % 0 % 1015,8 hPa 0,0 l/m 1,8 km/h (1 Bft) W-SW 247 -5,5 C 1,5 C 2,9 km/h (1 Bft)
14.01.2015 03:40 1,5 C 59 % 0 % 1015,9 hPa 0,0 l/m 1,1 km/h (1 Bft) SW 225 -5,6 C 1,3 C 4,3 km/h (1 Bft)
14.01.2015 03:45 2,8 C 58 % 0 % 1015,9 hPa 0,0 l/m 1,6 km/h (1 Bft) SW 225 -4,6 C 1,7 C 7,2 km/h (2 Bft)
14.01.2015 03:50 3,6 C 55 % 0 % 1015,9 hPa 0,0 l/m 3,5 km/h (1 Bft) W-SW 247 -4,6 C 2,5 C 4,2 km/h (1 Bft)
14.01.2015 03:55 3,9 C 53 % 0 % 1015,9 hPa 0,0 l/m 4,3 km/h (1 Bft) O-NO 67 -4,8 C 2,7 C 8,0 km/h (2 Bft)
14.01.2015 04:00 4,1 C 52 % 0 % 1016,0 hPa 0,0 l/m 4,0 km/h (1 Bft) W-SW 247 -4,9 C 3,2 C 4,5 km/h (1 Bft)
14.01.2015 04:05 4,1 C 52 % 0 % 1016,0 hPa 0,0 l/m 4,3 km/h (1 Bft) W-SW 247 -4,9 C 3,3 C 4,8 km/h (1 Bft)
14.01.2015 04:10 4,3 C 51 % 0 % 1016,0 hPa 0,0 l/m 4,3 km/h (1 Bft) W 270 -4,9 C 3,4 C 5,6 km/h (1 Bft)
14.01.2015 04:15 4,5 C 51 % 0 % 1016,0 hPa 0,0 l/m 4,7 km/h (1 Bft) W-SW 247 -4,7 C 3,4 C 5,1 km/h (1 Bft)
14.01.2015 04:20 4,6 C 51 % 0 % 1016,0 hPa 0,0 l/m 5,1 km/h (1 Bft) W-SW 247 -4,6 C 3,4 C 5,3 km/h (1 Bft)
14.01.2015 04:25 4,7 C 51 % 0 % 1016,0 hPa 0,0 l/m 4,8 km/h (1 Bft) SW 225 -4,6 C 3,7 C 4,8 km/h (1 Bft)
14.01.2015 04:30 4,6 C 50 % 0 % 1016,0 hPa 0,0 l/m 3,7 km/h (1 Bft) S 180 -4,9 C 4,2 C 11,4 km/h (2 Bft)
14.01.2015 04:35 4,4 C 50 % 0 % 1016,0 hPa 0,0 l/m 2,9 km/h (1 Bft) S 180 -5,1 C 4,5 C 2,4 km/h (1 Bft)
14.01.2015 04:40 4,5 C 50 % 0 % 1016,2 hPa 0,0 l/m 2,7 km/h (1 Bft) S-SO 157 -5,0 C 4,4 C 4,5 km/h (1 Bft)
14.01.2015 04:45 4,1 C 50 % 0 % 1016,2 hPa 0,0 l/m 2,6 km/h (1 Bft) S 180 -5,4 C 4,3 C 0,0 km/h (0 Bft)
14.01.2015 04:50 3,6 C 51 % 0 % 1016,2 hPa 0,0 l/m 1,8 km/h (1 Bft) S 180 -5,6 C 3,8 C 2,7 km/h (1 Bft)
14.01.2015 04:55 3,5 C 51 % 0 % 1016,2 hPa 0,0 l/m 1,8 km/h (1 Bft) S-SO 157 -5,7 C 3,5 C 3,2 km/h (1 Bft)
14.01.2015 05:00 3,5 C 52 % 0 % 1015,8 hPa 0,0 l/m 1,9 km/h (1 Bft) S-SO 157 -5,4 C 3,2 C 2,3 km/h (1 Bft)
14.01.2015 05:05 3,6 C 53 % 0 % 1015,8 hPa 0,0 l/m 2,4 km/h (1 Bft) W-SW 247 -5,1 C 3,2 C 4,0 km/h (1 Bft)
14.01.2015 05:10 3,6 C 54 % 0 % 1015,8 hPa 0,0 l/m 2,7 km/h (1 Bft) SO 135 -4,8 C 3,3 C 0,0 km/h (0 Bft)
14.01.2015 05:15 3,5 C 54 % 0 % 1015,8 hPa 0,0 l/m 1,9 km/h (1 Bft) SW 225 -4,9 C 3,2 C 0,0 km/h (0 Bft)
14.01.2015 05:20 3,0 C 55 % 0 % 1015,4 hPa 0,0 l/m 1,0 km/h (0 Bft) W-SW 247 -5,1 C 3,2 C 5,3 km/h (1 Bft)
14.01.2015 05:25 2,4 C 57 % 0 % 1015,4 hPa 0,0 l/m 1,4 km/h (1 Bft) S-SO 157 -5,2 C 2,8 C 0,0 km/h (0 Bft)
14.01.2015 05:30 2,6 C 57 % 0 % 1015,4 hPa 0,0 l/m 2,3 km/h (1 Bft) S-SO 157 -5,0 C 2,3 C 3,9 km/h (1 Bft)
14.01.2015 05:35 2,8 C 57 % 0 % 1015,4 hPa 0,0 l/m 2,3 km/h (1 Bft) S 180 -4,9 C 2,4 C 3,1 km/h (1 Bft)
14.01.2015 05:40 2,7 C 57 % 0 % 1016,0 hPa 0,0 l/m 1,8 km/h (1 Bft) SO 135 -4,9 C 2,4 C 0,0 km/h (0 Bft)
14.01.2015 05:45 2,5 C 58 % 0 % 1016,0 hPa 0,0 l/m 0,6 km/h (0 Bft) S-SO 157 -4,9 C 2,3 C 0,0 km/h (0 Bft)
14.01.2015 05:50 2,7 C 58 % 0 % 1016,0 hPa 0,0 l/m 0,5 km/h (0 Bft) S-SW 202 -4,7 C 2,3 C 2,1 km/h (1 Bft)
14.01.2015 05:55 2,7 C 58 % 0 % 1016,0 hPa 0,0 l/m 0,5 km/h (0 Bft) S-SW 202 -4,7 C 2,5 C 0,0 km/h (0 Bft)
14.01.2015 06:00 2,6 C 59 % 0 % 1015,8 hPa 0,0 l/m 0,2 km/h (0 Bft) S 180 -4,6 C 2,5 C 1,8 km/h (1 Bft)
14.01.2015 06:05 2,8 C 59 % 0 % 1015,8 hPa 0,0 l/m 0,0 km/h (0 Bft) S 180 -4,4 C 2,6 C 0,0 km/h (0 Bft)
14.01.2015 06:10 2,3 C 59 % 0 % 1015,8 hPa 0,0 l/m 0,3 km/h (0 Bft) W-SW 247 -4,9 C 2,3 C 0,0 km/h (0 Bft)
14.01.2015 06:15 2,5 C 61 % 0 % 1015,8 hPa 0,0 l/m 0,3 km/h (0 Bft) W-SW 247 -4,2 C 2,3 C 0,0 km/h (0 Bft)
14.01.2015 06:20 3,2 C 59 % 0 % 1015,8 hPa 0,0 l/m 1,3 km/h (1 Bft) W-SW 247 -4,0 C 2,7 C 4,5 km/h (1 Bft)
14.01.2015 06:25 2,4 C 59 % 0 % 1015,8 hPa 0,0 l/m 1,4 km/h (1 Bft) W-SW 247 -4,8 C 2,9 C 0,0 km/h (0 Bft)
14.01.2015 06:30 2,0 C 62 % 0 % 1015,8 hPa 0,0 l/m 0,5 km/h (0 Bft) W-SW 247 -4,5 C 2,3 C 0,0 km/h (0 Bft)
14.01.2015 06:35 1,9 C 62 % 0 % 1015,8 hPa 0,0 l/m 0,0 km/h (0 Bft) W-SW 247 -4,6 C 1,9 C 0,0 km/h (0 Bft)
14.01.2015 06:40 2,6 C 63 % 0 % 1015,7 hPa 0,0 l/m 0,6 km/h (0 Bft) SW 225 -3,7 C 1,8 C 3,2 km/h (1 Bft)
14.01.2015 06:45 3,3 C 61 % 0 % 1015,7 hPa 0,0 l/m 1,8 km/h (1 Bft) W-SW 247 -3,5 C 2,4 C 3,7 km/h (1 Bft)
14.01.2015 06:50 4,0 C 59 % 0 % 1015,7 hPa 0,0 l/m 2,9 km/h (1 Bft) S-SW 202 -3,3 C 3,2 C 5,0 km/h (1 Bft)
14.01.2015 06:55 4,5 C 57 % 0 % 1015,7 hPa 0,0 l/m 3,5 km/h (1 Bft) SW 225 -3,3 C 3,4 C 5,6 km/h (1 Bft)
14.01.2015 07:00 4,5 C 57 % 0 % 1016,0 hPa 0,0 l/m 4,2 km/h (1 Bft) W-SW 247 -3,3 C 3,6 C 4,7 km/h (1 Bft)
14.01.2015 07:05 4,5 C 57 % 0 % 1016,0 hPa 0,0 l/m 4,0 km/h (1 Bft) W-SW 247 -3,3 C 3,8 C 4,5 km/h (1 Bft)
14.01.2015 07:10 4,8 C 57 % 0 % 1016,0 hPa 0,0 l/m 4,5 km/h (1 Bft) W-SW 247 -3,0 C 3,9 C 4,5 km/h (1 Bft)
14.01.2015 07:15 5,0 C 56 % 0 % 1016,0 hPa 0,0 l/m 5,8 km/h (2 Bft) W-SW 247 -3,0 C 3,7 C 6,3 km/h (2 Bft)
14.01.2015 07:20 5,3 C 56 % 0 % 1016,4 hPa 0,0 l/m 7,7 km/h (2 Bft) W 270 -2,8 C 2,2 C 14,6 km/h (3 Bft)
14.01.2015 07:25 5,4 C 57 % 0 % 1016,4 hPa 0,0 l/m 8,7 km/h (2 Bft) W 270 -2,4 C 1,3 C 11,4 km/h (2 Bft)
14.01.2015 07:30 5,3 C 59 % 0 % 1016,4 hPa 0,0 l/m 9,0 km/h (2 Bft) W-SW 247 -2,0 C 1,2 C 19,0 km/h (3 Bft)
14.01.2015 07:35 5,1 C 61 % 0 % 1016,4 hPa 0,0 l/m 8,4 km/h (2 Bft) W-SW 247 -1,8 C 1,7 C 6,1 km/h (2 Bft)
14.01.2015 07:40 4,8 C 62 % 0 % 1016,6 hPa 0,0 l/m 6,4 km/h (2 Bft) W-SW 247 -1,9 C 3,7 C 5,0 km/h (1 Bft)
14.01.2015 07:45 4,9 C 63 % 0 % 1016,6 hPa 0,0 l/m 5,6 km/h (1 Bft) W 270 -1,5 C 3,8 C 7,6 km/h (2 Bft)
14.01.2015 07:50 4,7 C 65 % 0 % 1016,6 hPa 0,0 l/m 6,0 km/h (2 Bft) W-SW 247 -1,3 C 3,4 C 10,8 km/h (2 Bft)
14.01.2015 07:55 4,9 C 66 % 0 % 1016,6 hPa 0,0 l/m 6,8 km/h (2 Bft) W 270 -0,9 C 2,8 C 10,9 km/h (2 Bft)
14.01.2015 08:00 4,8 C 66 % 0 % 1016,9 hPa 0,0 l/m 6,9 km/h (2 Bft) W-SW 247 -1,0 C 2,8 C 2,7 km/h (1 Bft)
14.01.2015 08:05 4,5 C 66 % 0 % 1016,9 hPa 0,0 l/m 5,1 km/h (1 Bft) W 270 -1,3 C 3,7 C 4,7 km/h (1 Bft)
14.01.2015 08:10 4,6 C 68 % 0 % 1016,9 hPa 0,0 l/m 4,5 km/h (1 Bft) W 270 -0,8 C 3,6 C 10,5 km/h (2 Bft)
14.01.2015 08:15 4,7 C 69 % 0 % 1016,9 hPa 0,0 l/m 5,6 km/h (1 Bft) W 270 -0,5 C 3,1 C 6,4 km/h (2 Bft)
14.01.2015 08:20 4,5 C 70 % 0 % 1016,7 hPa 0,0 l/m 5,3 km/h (1 Bft) W-SW 247 -0,5 C 3,1 C 6,0 km/h (2 Bft)
14.01.2015 08:25 4,5 C 70 % 0 % 1016,7 hPa 0,0 l/m 4,7 km/h (1 Bft) SW 225 -0,5 C 3,4 C 5,0 km/h (1 Bft)
14.01.2015 08:30 4,3 C 70 % 0 % 1016,7 hPa 0,0 l/m 4,8 km/h (1 Bft) NW 315 -0,7 C 3,3 C 4,3 km/h (1 Bft)
14.01.2015 08:35 4,0 C 70 % 0 % 1016,7 hPa 0,0 l/m 3,9 km/h (1 Bft) N-NO 22 -1,0 C 3,3 C 0,0 km/h (0 Bft)
14.01.2015 08:40 3,8 C 70 % 0 % 1016,8 hPa 0,0 l/m 1,9 km/h (1 Bft) W-SW 247 -1,2 C 3,5 C 0,0 km/h (0 Bft)
14.01.2015 08:45 3,8 C 71 % 0 % 1016,8 hPa 0,0 l/m 1,1 km/h (1 Bft) W-NW 292 -1,0 C 3,3 C 1,9 km/h (1 Bft)
14.01.2015 08:50 4,1 C 72 % 0 % 1016,8 hPa 0,0 l/m 2,4 km/h (1 Bft) W-SW 247 -0,5 C 3,5 C 4,0 km/h (1 Bft)
14.01.2015 08:55 4,2 C 73 % 0 % 1016,8 hPa 0,0 l/m 4,0 km/h (1 Bft) W-SW 247 -0,2 C 3,1 C 5,8 km/h (2 Bft)
14.01.2015 09:00 4,4 C 73 % 0 % 1017,4 hPa 0,0 l/m 5,3 km/h (1 Bft) W 270 -0,0 C 2,9 C 9,3 km/h (2 Bft)
14.01.2015 09:05 4,4 C 74 % 0 % 1017,4 hPa 0,0 l/m 5,8 km/h (2 Bft) W 270 0,2 C 2,8 C 5,8 km/h (2 Bft)
14.01.2015 09:10 4,6 C 74 % 0 % 1017,4 hPa 0,0 l/m 6,9 km/h (2 Bft) W-SW 247 0,4 C 1,9 C 5,0 km/h (1 Bft)
14.01.2015 09:15 4,6 C 74 % 0 % 1017,4 hPa 0,0 l/m 6,1 km/h (2 Bft) W 270 0,4 C 2,9 C 7,4 km/h (2 Bft)
14.01.2015 09:20 4,8 C 74 % 0 % 1017,4 hPa 0,0 l/m 5,6 km/h (1 Bft) W-SW 247 0,6 C 3,5 C 9,2 km/h (2 Bft)
14.01.2015 09:25 4,7 C 74 % 0 % 1017,4 hPa 0,0 l/m 6,8 km/h (2 Bft) W-SW 247 0,5 C 2,8 C 4,8 km/h (1 Bft)
14.01.2015 09:30 4,7 C 74 % 0 % 1017,4 hPa 0,0 l/m 6,4 km/h (2 Bft) W-SW 247 0,5 C 3,1 C 6,1 km/h (2 Bft)
14.01.2015 09:35 4,7 C 74 % 0 % 1017,4 hPa 0,0 l/m 5,3 km/h (1 Bft) W-SW 247 0,5 C 3,4 C 5,0 km/h (1 Bft)
14.01.2015 09:40 4,5 C 74 % 0 % 1017,4 hPa 0,0 l/m 4,5 km/h (1 Bft) W-SW 247 0,3 C 3,8 C 6,6 km/h (2 Bft)
14.01.2015 09:45 4,4 C 74 % 0 % 1017,4 hPa 0,0 l/m 3,9 km/h (1 Bft) SW 225 0,2 C 4,0 C 3,1 km/h (1 Bft)
14.01.2015 09:50 4,4 C 75 % 0 % 1017,4 hPa 0,0 l/m 4,0 km/h (1 Bft) S-SW 202 0,4 C 3,6 C 8,5 km/h (2 Bft)
14.01.2015 09:55 4,5 C 76 % 0 % 1017,4 hPa 0,0 l/m 5,0 km/h (1 Bft) SW 225 0,6 C 2,8 C 4,8 km/h (1 Bft)
14.01.2015 10:00 4,2 C 76 % 0 % 1017,0 hPa 0,0 l/m 5,0 km/h (1 Bft) W-SW 247 0,4 C 2,6 C 3,2 km/h (1 Bft)
14.01.2015 10:05 4,1 C 77 % 0 % 1017,0 hPa 0,0 l/m 4,2 km/h (1 Bft) W-SW 247 0,4 C 2,6 C 6,4 km/h (2 Bft)
14.01.2015 10:10 4,2 C 77 % 0 % 1017,0 hPa 0,0 l/m 4,0 km/h (1 Bft) W-SW 247 0,5 C 2,7 C 0,0 km/h (0 Bft)
14.01.2015 10:15 4,2 C 77 % 0 % 1017,0 hPa 0,0 l/m 3,4 km/h (1 Bft) W-SW 247 0,5 C 3,2 C 4,8 km/h (1 Bft)
14.01.2015 10:20 4,3 C 77 % 0 % 1016,8 hPa 0,0 l/m 1,4 km/h (1 Bft) W-SW 247 0,6 C 3,8 C 4,3 km/h (1 Bft)
14.01.2015 10:25 4,3 C 77 % 0 % 1016,8 hPa 0,0 l/m 1,1 km/h (1 Bft) S-SW 202 0,6 C 3,9 C 0,0 km/h (0 Bft)
14.01.2015 10:30 4,6 C 76 % 0 % 1016,8 hPa 0,0 l/m 0,3 km/h (0 Bft) SW 225 0,7 C 4,3 C 0,0 km/h (0 Bft)
14.01.2015 10:35 5,0 C 76 % 0 % 1016,8 hPa 0,0 l/m 0,2 km/h (0 Bft) S 180 1,1 C 4,9 C 0,0 km/h (0 Bft)
14.01.2015 10:40 4,9 C 76 % 0 % 1016,9 hPa 0,0 l/m 0,0 km/h (0 Bft) W-SW 247 1,0 C 5,4 C 1,6 km/h (1 Bft)
14.01.2015 10:45 5,1 C 76 % 0 % 1016,9 hPa 0,0 l/m 0,2 km/h (0 Bft) W 270 1,2 C 5,4 C 0,0 km/h (0 Bft)
14.01.2015 10:50 4,9 C 75 % 0 % 1016,9 hPa 0,0 l/m 0,2 km/h (0 Bft) W-SW 247 0,8 C 5,4 C 0,0 km/h (0 Bft)
14.01.2015 10:55 4,9 C 75 % 0 % 1016,9 hPa 0,0 l/m 0,6 km/h (0 Bft) W-SW 247 0,8 C 5,4 C 3,2 km/h (1 Bft)
14.01.2015 11:00 5,1 C 75 % 0 % 1017,5 hPa 0,0 l/m 2,7 km/h (1 Bft) W 270 1,0 C 5,4 C 9,3 km/h (2 Bft)
14.01.2015 11:05 5,1 C 74 % 0 % 1017,5 hPa 0,0 l/m 5,0 km/h (1 Bft) W-SW 247 0,9 C 4,5 C 8,7 km/h (2 Bft)
14.01.2015 11:10 5,2 C 73 % 0 % 1017,5 hPa 0,0 l/m 6,6 km/h (2 Bft) W-SW 247 0,8 C 3,7 C 6,4 km/h (2 Bft)
14.01.2015 11:15 5,2 C 73 % 0 % 1017,5 hPa 0,0 l/m 7,1 km/h (2 Bft) NO 45 0,8 C 3,2 C 12,2 km/h (2 Bft)
14.01.2015 11:20 5,1 C 74 % 0 % 1017,1 hPa 0,0 l/m 8,4 km/h (2 Bft) W-SW 247 0,9 C 1,6 C 21,6 km/h (4 Bft)
14.01.2015 11:25 5,1 C 75 % 0 % 1017,1 hPa 0,0 l/m 10,3 km/h (2 Bft) W 270 1,0 C -0,5 C 23,5 km/h (4 Bft)
14.01.2015 11:30 4,8 C 75 % 0 % 1017,1 hPa 0,0 l/m 11,3 km/h (2 Bft) W 270 0,8 C -1,6 C 18,2 km/h (3 Bft)
14.01.2015 11:35 4,7 C 75 % 0 % 1017,1 hPa 0,0 l/m 11,3 km/h (2 Bft) W 270 0,7 C -1,8 C 12,1 km/h (2 Bft)
14.01.2015 11:40 4,5 C 75 % 0 % 1017,8 hPa 0,0 l/m 10,6 km/h (2 Bft) W-SW 247 0,5 C -1,5 C 25,1 km/h (4 Bft)
14.01.2015 11:45 4,3 C 76 % 0 % 1017,8 hPa 0,0 l/m 10,0 km/h (2 Bft) SW 225 0,5 C -1,1 C 8,4 km/h (2 Bft)
14.01.2015 11:50 4,0 C 77 % 0 % 1017,8 hPa 0,0 l/m 8,5 km/h (2 Bft) W-SW 247 0,3 C -0,4 C 13,8 km/h (3 Bft)
14.01.2015 11:55 3,8 C 78 % 0 % 1017,8 hPa 0,0 l/m 8,5 km/h (2 Bft) W-NW 292 0,3 C -0,8 C 8,4 km/h (2 Bft)
14.01.2015 12:00 3,6 C 79 % 0 % 1017,9 hPa 0,0 l/m 9,5 km/h (2 Bft) W 270 0,3 C -2,4 C 17,2 km/h (3 Bft)
14.01.2015 12:05 3,4 C 79 % 0 % 1017,9 hPa 0,0 l/m 9,0 km/h (2 Bft) W 270 0,1 C -2,0 C 5,3 km/h (1 Bft)
14.01.2015 12:10 2,7 C 79 % 0 % 1017,9 hPa 0,0 l/m 10,9 km/h (2 Bft) W-SW 247 -0,6 C -5,1 C 29,1 km/h (5 Bft)
14.01.2015 12:15 2,6 C 81 % 0 % 1017,9 hPa 0,0 l/m 11,9 km/h (2 Bft) W 270 -0,3 C -6,7 C 10,1 km/h (2 Bft)
14.01.2015 12:20 2,3 C 81 % 0 % 1018,2 hPa 0,0 l/m 11,4 km/h (2 Bft) N-NO 22 -0,6 C -6,4 C 9,8 km/h (2 Bft)
14.01.2015 12:25 2,0 C 81 % 0 % 1018,2 hPa 0,0 l/m 10,8 km/h (2 Bft) W-SW 247 -0,9 C -6,0 C 20,8 km/h (4 Bft)
14.01.2015 12:30 1,7 C 82 % 0 % 1018,2 hPa 0,0 l/m 10,9 km/h (2 Bft) W-SW 247 -1,0 C -6,9 C 7,6 km/h (2 Bft)
14.01.2015 12:35 1,5 C 83 % 0 % 1018,2 hPa 0,0 l/m 11,6 km/h (2 Bft) W-NW 292 -1,1 C -7,9 C 14,5 km/h (3 Bft)
14.01.2015 12:40 1,2 C 84 % 0 % 1018,3 hPa 0,0 l/m 9,7 km/h (2 Bft) W-SW 247 -1,2 C -6,0 C 12,9 km/h (3 Bft)
14.01.2015 12:45 1,1 C 85 % 0 % 1018,3 hPa 0,0 l/m 8,0 km/h (2 Bft) W-SW 247 -1,1 C -4,2 C 12,9 km/h (3 Bft)
14.01.2015 12:50 1,0 C 85 % 0 % 1018,3 hPa 0,0 l/m 6,4 km/h (2 Bft) NW 315 -1,2 C -1,9 C 7,4 km/h (2 Bft)
14.01.2015 12:55 1,1 C 86 % 0 % 1018,3 hPa 0,0 l/m 5,5 km/h (1 Bft) W 270 -1,0 C -1,6 C 7,2 km/h (2 Bft)
14.01.2015 13:00 1,2 C 86 % 0 % 1017,7 hPa 0,0 l/m 5,0 km/h (1 Bft) W-SW 247 -0,9 C -1,3 C 13,2 km/h (3 Bft)
14.01.2015 13:05 1,2 C 86 % 0 % 1017,7 hPa 0,0 l/m 5,1 km/h (1 Bft) W 270 -0,9 C -1,4 C 8,4 km/h (2 Bft)
14.01.2015 13:10 1,3 C 86 % 0 % 1017,7 hPa 0,0 l/m 6,8 km/h (2 Bft) W-SW 247 -0,8 C -2,4 C 13,4 km/h (3 Bft)
14.01.2015 13:15 1,4 C 87 % 0 % 1017,7 hPa 0,0 l/m 8,4 km/h (2 Bft) W-SW 247 -0,5 C -4,7 C 6,9 km/h (2 Bft)
14.01.2015 13:20 1,3 C 87 % 0 % 1017,7 hPa 0,0 l/m 9,2 km/h (2 Bft) W-SW 247 -0,6 C -5,6 C 10,1 km/h (2 Bft)
14.01.2015 13:25 1,3 C 87 % 0 % 1017,7 hPa 0,0 l/m 8,0 km/h (2 Bft) W 270 -0,6 C -4,1 C 12,6 km/h (3 Bft)
14.01.2015 13:30 1,3 C 87 % 0 % 1017,7 hPa 0,0 l/m 7,2 km/h (2 Bft) SW 225 -0,6 C -3,0 C 6,6 km/h (2 Bft)
14.01.2015 13:35 1,3 C 87 % 0 % 1017,7 hPa 0,0 l/m 7,2 km/h (2 Bft) W 270 -0,6 C -3,0 C 9,2 km/h (2 Bft)
14.01.2015 13:40 1,3 C 88 % 0 % 1017,1 hPa 0,0 l/m 7,2 km/h (2 Bft) NW 315 -0,5 C -3,0 C 11,7 km/h (2 Bft)
14.01.2015 13:45 1,3 C 88 % 0 % 1017,1 hPa 0,0 l/m 7,9 km/h (2 Bft) W-SW 247 -0,5 C -3,9 C 7,1 km/h (2 Bft)
14.01.2015 13:50 1,3 C 88 % 0 % 1017,1 hPa 0,0 l/m 8,5 km/h (2 Bft) SW 225 -0,5 C -4,6 C 8,5 km/h (2 Bft)
14.01.2015 13:55 1,4 C 88 % 0 % 1017,1 hPa 0,0 l/m 7,9 km/h (2 Bft) W-SW 247 -0,4 C -3,9 C 8,9 km/h (2 Bft)
14.01.2015 14:00 1,5 C 88 % 0 % 1017,1 hPa 0,0 l/m 7,1 km/h (2 Bft) W-SW 247 -0,3 C -2,4 C 6,6 km/h (2 Bft)
14.01.2015 14:05 1,6 C 88 % 0 % 1017,1 hPa 0,0 l/m 6,1 km/h (2 Bft) W-SW 247 -0,2 C -1,2 C 8,2 km/h (2 Bft)
14.01.2015 14:10 1,7 C 88 % 0 % 1017,1 hPa 0,0 l/m 6,0 km/h (2 Bft) W 270 -0,1 C -1,0 C 12,2 km/h (2 Bft)
14.01.2015 14:15 1,8 C 88 % 0 % 1017,1 hPa 0,0 l/m 6,0 km/h (2 Bft) W-SW 247 0,0 C -1,0 C 6,3 km/h (2 Bft)
14.01.2015 14:20 1,9 C 87 % 0 % 1016,9 hPa 0,0 l/m 6,8 km/h (2 Bft) W 270 -0,0 C -1,5 C 14,3 km/h (3 Bft)
14.01.2015 14:25 2,0 C 86 % 0 % 1016,9 hPa 0,0 l/m 7,6 km/h (2 Bft) W-SW 247 -0,1 C -2,6 C 11,3 km/h (2 Bft)
14.01.2015 14:30 2,0 C 85 % 0 % 1016,9 hPa 0,0 l/m 6,8 km/h (2 Bft) NW 315 -0,3 C -1,3 C 6,8 km/h (2 Bft)
14.01.2015 14:35 2,0 C 85 % 0 % 1016,9 hPa 0,0 l/m 7,2 km/h (2 Bft) W 270 -0,3 C -1,9 C 14,0 km/h (3 Bft)
14.01.2015 14:40 2,0 C 85 % 0 % 1017,1 hPa 0,0 l/m 7,4 km/h (2 Bft) W-NW 292 -0,3 C -2,0 C 5,0 km/h (1 Bft)
14.01.2015 14:45 2,0 C 85 % 0 % 1017,1 hPa 0,0 l/m 6,8 km/h (2 Bft) W 270 -0,3 C -1,1 C 10,1 km/h (2 Bft)
14.01.2015 14:50 2,2 C 85 % 0 % 1017,1 hPa 0,0 l/m 6,4 km/h (2 Bft) W-SW 247 -0,1 C -0,8 C 9,8 km/h (2 Bft)
14.01.2015 14:55 2,2 C 84 % 0 % 1017,1 hPa 0,0 l/m 7,6 km/h (2 Bft) W 270 -0,2 C -2,2 C 10,8 km/h (2 Bft)
14.01.2015 15:00 2,2 C 84 % 0 % 1017,2 hPa 0,0 l/m 7,4 km/h (2 Bft) W 270 -0,2 C -1,9 C 8,2 km/h (2 Bft)
14.01.2015 15:05 2,1 C 84 % 0 % 1017,2 hPa 0,0 l/m 6,8 km/h (2 Bft) W 270 -0,3 C -0,8 C 7,4 km/h (2 Bft)
14.01.2015 15:10 2,1 C 84 % 0 % 1017,2 hPa 0,0 l/m 5,3 km/h (1 Bft) W-SW 247 -0,3 C -0,1 C 5,3 km/h (1 Bft)
14.01.2015 15:15 2,0 C 84 % 0 % 1017,2 hPa 0,0 l/m 4,8 km/h (1 Bft) W 270 -0,4 C 0,2 C 8,9 km/h (2 Bft)
14.01.2015 15:20 2,0 C 84 % 0 % 1017,1 hPa 0,0 l/m 4,8 km/h (1 Bft) W-SW 247 -0,4 C 0,2 C 5,0 km/h (1 Bft)
14.01.2015 15:25 2,0 C 84 % 0 % 1017,1 hPa 0,0 l/m 4,8 km/h (1 Bft) SW 225 -0,4 C 0,2 C 5,3 km/h (1 Bft)
14.01.2015 15:30 2,2 C 84 % 0 % 1017,1 hPa 0,0 l/m 4,5 km/h (1 Bft) SW 225 -0,2 C 0,4 C 13,4 km/h (3 Bft)
14.01.2015 15:35 2,4 C 83 % 0 % 1017,1 hPa 0,0 l/m 5,0 km/h (1 Bft) W 270 -0,2 C 0,4 C 5,0 km/h (1 Bft)
14.01.2015 15:40 2,8 C 82 % 0 % 1016,6 hPa 0,0 l/m 5,8 km/h (2 Bft) W 270 0,0 C 0,4 C 4,5 km/h (1 Bft)
14.01.2015 15:45 2,8 C 81 % 0 % 1016,6 hPa 0,0 l/m 6,0 km/h (2 Bft) W-SW 247 -0,1 C 0,6 C 8,7 km/h (2 Bft)
14.01.2015 15:50 2,6 C 79 % 0 % 1016,6 hPa 0,0 l/m 5,6 km/h (1 Bft) W-SW 247 -0,7 C 0,7 C 5,6 km/h (1 Bft)
14.01.2015 15:55 2,6 C 79 % 0 % 1016,6 hPa 0,0 l/m 6,3 km/h (2 Bft) W-NW 292 -0,7 C 0,4 C 10,6 km/h (2 Bft)
14.01.2015 16:00 2,5 C 79 % 0 % 1016,6 hPa 0,0 l/m 6,6 km/h (2 Bft) SW 225 -0,8 C -0,1 C 7,6 km/h (2 Bft)
14.01.2015 16:05 2,3 C 79 % 0 % 1016,6 hPa 0,0 l/m 6,4 km/h (2 Bft) SW 225 -1,0 C -0,2 C 6,1 km/h (2 Bft)
14.01.2015 16:10 2,3 C 79 % 0 % 1016,6 hPa 0,0 l/m 5,3 km/h (1 Bft) SW 225 -1,0 C 0,1 C 6,6 km/h (2 Bft)
14.01.2015 16:15 2,4 C 79 % 0 % 1016,6 hPa 0,0 l/m 5,5 km/h (1 Bft) W-SW 247 -0,9 C 0,2 C 7,9 km/h (2 Bft)
14.01.2015 16:20 2,4 C 79 % 0 % 1016,9 hPa 0,0 l/m 5,5 km/h (1 Bft) W-SW 247 -0,9 C 0,2 C 11,7 km/h (2 Bft)
14.01.2015 16:25 2,6 C 79 % 0 % 1016,9 hPa 0,0 l/m 5,5 km/h (1 Bft) W 270 -0,7 C 0,3 C 3,7 km/h (1 Bft)
14.01.2015 16:30 2,9 C 78 % 0 % 1016,9 hPa 0,0 l/m 6,1 km/h (2 Bft) W-SW 247 -0,5 C 0,4 C 6,3 km/h (2 Bft)
14.01.2015 16:35 2,7 C 78 % 0 % 1016,9 hPa 0,0 l/m 4,7 km/h (1 Bft) SW 225 -0,7 C 1,1 C 3,9 km/h (1 Bft)
14.01.2015 16:40 2,9 C 77 % 0 % 1017,1 hPa 0,0 l/m 4,2 km/h (1 Bft) SW 225 -0,7 C 1,5 C 7,4 km/h (2 Bft)
14.01.2015 16:45 3,2 C 75 % 0 % 1017,1 hPa 0,0 l/m 6,1 km/h (2 Bft) SW 225 -0,8 C 0,9 C 9,3 km/h (2 Bft)
14.01.2015 16:50 3,2 C 75 % 0 % 1017,1 hPa 0,0 l/m 7,4 km/h (2 Bft) W 270 -0,8 C -0,4 C 9,0 km/h (2 Bft)
14.01.2015 16:55 2,9 C 77 % 0 % 1017,1 hPa 0,0 l/m 7,7 km/h (2 Bft) SW 225 -0,7 C -1,0 C 13,0 km/h (3 Bft)
14.01.2015 17:00 2,7 C 78 % 0 % 1017,2 hPa 0,0 l/m 8,7 km/h (2 Bft) NO 45 -0,7 C -2,6 C 10,6 km/h (2 Bft)
14.01.2015 17:05 2,8 C 78 % 0 % 1017,2 hPa 0,0 l/m 8,2 km/h (2 Bft) SW 225 -0,6 C -2,2 C 9,3 km/h (2 Bft)
14.01.2015 17:10 2,7 C 78 % 0 % 1017,2 hPa 0,0 l/m 7,1 km/h (2 Bft) SW 225 -0,7 C -0,6 C 4,3 km/h (1 Bft)
14.01.2015 17:15 2,7 C 78 % 0 % 1017,2 hPa 0,0 l/m 6,1 km/h (2 Bft) SW 225 -0,7 C 0,4 C 11,4 km/h (2 Bft)
14.01.2015 17:20 2,6 C 78 % 0 % 1017,1 hPa 0,0 l/m 5,3 km/h (1 Bft) W-SW 247 -0,8 C 0,8 C 6,3 km/h (2 Bft)
14.01.2015 17:25 2,9 C 78 % 0 % 1017,1 hPa 0,0 l/m 6,1 km/h (2 Bft) W-SW 247 -0,5 C 0,6 C 6,9 km/h (2 Bft)
14.01.2015 17:30 3,0 C 76 % 0 % 1017,1 hPa 0,0 l/m 6,8 km/h (2 Bft) W-SW 247 -0,8 C 0,0 C 8,0 km/h (2 Bft)
14.01.2015 17:35 3,2 C 75 % 0 % 1017,1 hPa 0,0 l/m 7,2 km/h (2 Bft) W-SW 247 -0,8 C -0,1 C 12,1 km/h (2 Bft)
14.01.2015 17:40 3,3 C 73 % 0 % 1017,2 hPa 0,0 l/m 7,6 km/h (2 Bft) W-SW 247 -1,1 C -0,3 C 10,1 km/h (2 Bft)
14.01.2015 17:45 3,4 C 72 % 0 % 1017,2 hPa 0,0 l/m 7,6 km/h (2 Bft) W 270 -1,2 C -0,2 C 11,7 km/h (2 Bft)
14.01.2015 17:50 3,7 C 70 % 0 % 1017,2 hPa 0,0 l/m 9,7 km/h (2 Bft) SW 225 -1,3 C -2,4 C 18,7 km/h (3 Bft)
14.01.2015 17:55 3,7 C 69 % 0 % 1017,2 hPa 0,0 l/m 11,3 km/h (2 Bft) W 270 -1,4 C -3,8 C 24,6 km/h (4 Bft)
14.01.2015 18:00 3,6 C 70 % 0 % 1017,7 hPa 0,0 l/m 12,4 km/h (3 Bft) W-SW 247 -1,3 C -4,9 C 13,2 km/h (3 Bft)
14.01.2015 18:05 3,5 C 71 % 0 % 1017,7 hPa 0,0 l/m 12,9 km/h (3 Bft) SW 225 -1,3 C -5,6 C 13,4 km/h (3 Bft)
14.01.2015 18:10 3,3 C 72 % 0 % 1017,7 hPa 0,0 l/m 9,8 km/h (2 Bft) W-SW 247 -1,3 C -3,0 C 10,1 km/h (2 Bft)
14.01.2015 18:15 3,4 C 72 % 0 % 1017,7 hPa 0,0 l/m 8,0 km/h (2 Bft) S 180 -1,2 C -1,0 C 8,7 km/h (2 Bft)
14.01.2015 18:20 3,3 C 72 % 0 % 1018,0 hPa 0,0 l/m 5,3 km/h (1 Bft) SW 225 -1,3 C 1,4 C 10,0 km/h (2 Bft)
14.01.2015 18:25 3,4 C 72 % 0 % 1018,0 hPa 0,0 l/m 4,7 km/h (1 Bft) W-SW 247 -1,2 C 1,8 C 5,5 km/h (1 Bft)
14.01.2015 18:30 3,7 C 70 % 0 % 1018,0 hPa 0,0 l/m 6,6 km/h (2 Bft) W-SW 247 -1,3 C 1,1 C 14,3 km/h (3 Bft)
14.01.2015 18:35 3,8 C 69 % 0 % 1018,0 hPa 0,0 l/m 6,6 km/h (2 Bft) W 270 -1,4 C 1,1 C 14,3 km/h (3 Bft)
14.01.2015 18:40 4,1 C 66 % 58 % 1018,1 hPa 0,0 l/m 11,3 km/h (2 Bft) W-NW 292 -1,7 C -3,6 C 16,9 km/h (3 Bft)
14.01.2015 18:45 4,1 C 66 % 59 % 1018,1 hPa 0,0 l/m 12,2 km/h (2 Bft) W 270 -1,7 C -4,3 C 21,6 km/h (4 Bft)
14.01.2015 18:50 3,9 C 68 % 60 % 1018,1 hPa 0,0 l/m 11,7 km/h (2 Bft) SW 225 -1,5 C -3,9 C 7,6 km/h (2 Bft)
14.01.2015 18:55 3,7 C 69 % 62 % 1018,1 hPa 0,0 l/m 10,0 km/h (2 Bft) SW 225 -1,4 C -2,7 C 8,0 km/h (2 Bft)
14.01.2015 19:00 3,5 C 71 % 64 % 1018,6 hPa 0,0 l/m 10,3 km/h (2 Bft) W-SW 247 -1,3 C -3,3 C 24,9 km/h (4 Bft)
14.01.2015 19:05 3,4 C 72 % 65 % 1018,6 hPa 0,0 l/m 10,3 km/h (2 Bft) W 270 -1,2 C -3,4 C 7,1 km/h (2 Bft)
14.01.2015 19:10 3,2 C 73 % 67 % 1018,6 hPa 0,0 l/m 10,0 km/h (2 Bft) SW 225 -1,2 C -3,1 C 7,7 km/h (2 Bft)
14.01.2015 19:15 3,1 C 73 % 67 % 1018,6 hPa 0,0 l/m 8,7 km/h (2 Bft) W 270 -1,3 C -1,8 C 10,1 km/h (2 Bft)
14.01.2015 19:20 2,8 C 75 % 68 % 1019,1 hPa 0,0 l/m 8,2 km/h (2 Bft) W-SW 247 -1,2 C -1,8 C 15,1 km/h (3 Bft)
14.01.2015 19:25 2,7 C 76 % 69 % 1019,1 hPa 0,0 l/m 9,5 km/h (2 Bft) W 270 -1,1 C -3,8 C 13,4 km/h (3 Bft)
14.01.2015 19:30 2,3 C 77 % 70 % 1019,1 hPa 0,0 l/m 9,7 km/h (2 Bft) S 180 -1,3 C -4,5 C 7,4 km/h (2 Bft)
14.01.2015 19:35 2,2 C 79 % 71 % 1019,1 hPa 0,0 l/m 9,3 km/h (2 Bft) SW 225 -1,1 C -4,3 C 10,3 km/h (2 Bft)
14.01.2015 19:40 1,9 C 80 % 73 % 1019,3 hPa 0,0 l/m 7,7 km/h (2 Bft) SW 225 -1,2 C -2,6 C 7,6 km/h (2 Bft)
14.01.2015 19:45 1,8 C 81 % 73 % 1019,3 hPa 0,0 l/m 6,3 km/h (2 Bft) NW 315 -1,1 C -0,9 C 4,5 km/h (1 Bft)
14.01.2015 19:50 1,9 C 82 % 74 % 1019,3 hPa 0,0 l/m 6,4 km/h (2 Bft) W 270 -0,8 C -1,1 C 7,4 km/h (2 Bft)
14.01.2015 19:55 1,9 C 83 % 75 % 1019,3 hPa 0,0 l/m 7,2 km/h (2 Bft) SW 225 -0,7 C -2,2 C 6,1 km/h (2 Bft)
14.01.2015 20:00 1,9 C 83 % 76 % 1019,7 hPa 0,0 l/m 7,6 km/h (2 Bft) S-SO 157 -0,7 C -2,7 C 11,1 km/h (2 Bft)
14.01.2015 20:05 1,7 C 84 % 76 % 1019,7 hPa 0,0 l/m 7,4 km/h (2 Bft) N-NW 337 -0,7 C -2,5 C 6,3 km/h (2 Bft)
14.01.2015 20:10 1,6 C 84 % 76 % 1019,7 hPa 0,0 l/m 7,1 km/h (2 Bft) S-SW 202 -0,8 C -2,2 C 7,4 km/h (2 Bft)
14.01.2015 20:15 1,5 C 84 % 77 % 1019,7 hPa 0,0 l/m 6,3 km/h (2 Bft) SW 225 -0,9 C -1,3 C 5,5 km/h (1 Bft)
14.01.2015 20:20 1,6 C 85 % 77 % 1019,9 hPa 0,0 l/m 6,4 km/h (2 Bft) SW 225 -0,6 C -1,3 C 10,5 km/h (2 Bft)
14.01.2015 20:25 1,9 C 85 % 77 % 1019,9 hPa 0,0 l/m 7,2 km/h (2 Bft) W-SW 247 -0,3 C -2,4 C 6,1 km/h (2 Bft)
14.01.2015 20:30 2,0 C 84 % 77 % 1019,9 hPa 0,0 l/m 7,6 km/h (2 Bft) W 270 -0,4 C -2,4 C 14,5 km/h (3 Bft)
14.01.2015 20:35 2,0 C 84 % 77 % 1019,9 hPa 0,0 l/m 7,7 km/h (2 Bft) W-NW 292 -0,4 C -2,5 C 12,2 km/h (2 Bft)
14.01.2015 20:40 2,1 C 83 % 77 % 1020,1 hPa 0,0 l/m 8,0 km/h (2 Bft) SW 225 -0,5 C -2,7 C 7,6 km/h (2 Bft)
14.01.2015 20:45 2,2 C 83 % 77 % 1020,1 hPa 0,0 l/m 7,4 km/h (2 Bft) W 270 -0,4 C -1,8 C 10,5 km/h (2 Bft)
14.01.2015 20:50 2,3 C 83 % 77 % 1020,1 hPa 0,0 l/m 6,9 km/h (2 Bft) S-SW 202 -0,3 C -0,8 C 8,5 km/h (2 Bft)
14.01.2015 20:55 2,3 C 83 % 77 % 1020,1 hPa 0,0 l/m 6,9 km/h (2 Bft) W-SW 247 -0,3 C -0,8 C 7,2 km/h (2 Bft)
14.01.2015 21:00 2,3 C 82 % 77 % 1020,4 hPa 0,0 l/m 7,2 km/h (2 Bft) SW 225 -0,4 C -1,1 C 6,9 km/h (2 Bft)
14.01.2015 21:05 2,3 C 82 % 77 % 1020,4 hPa 0,0 l/m 7,9 km/h (2 Bft) S 180 -0,4 C -2,3 C 6,1 km/h (2 Bft)
14.01.2015 21:10 2,0 C 83 % 77 % 1020,4 hPa 0,0 l/m 8,2 km/h (2 Bft) S-SW 202 -0,6 C -3,0 C 8,7 km/h (2 Bft)
14.01.2015 21:15 2,0 C 84 % 77 % 1020,4 hPa 0,0 l/m 8,5 km/h (2 Bft) W 270 -0,4 C -3,6 C 10,5 km/h (2 Bft)
14.01.2015 21:20 1,8 C 85 % 78 % 1020,4 hPa 0,0 l/m 6,8 km/h (2 Bft) S 180 -0,4 C -1,6 C 8,2 km/h (2 Bft)
14.01.2015 21:25 1,7 C 85 % 78 % 1020,4 hPa 0,0 l/m 5,8 km/h (2 Bft) W-SW 247 -0,5 C -0,9 C 6,3 km/h (2 Bft)
14.01.2015 21:30 1,7 C 85 % 78 % 1020,4 hPa 0,0 l/m 5,0 km/h (1 Bft) SW 225 -0,5 C -0,7 C 3,4 km/h (1 Bft)
14.01.2015 21:35 1,8 C 85 % 78 % 1020,4 hPa 0,0 l/m 5,1 km/h (1 Bft) W-SW 247 -0,4 C -0,8 C 6,6 km/h (2 Bft)
14.01.2015 21:40 2,0 C 85 % 79 % 1020,7 hPa 0,0 l/m 6,0 km/h (2 Bft) W 270 -0,3 C -0,9 C 15,8 km/h (3 Bft)
14.01.2015 21:45 2,0 C 85 % 79 % 1020,7 hPa 0,0 l/m 6,1 km/h (2 Bft) W-NW 292 -0,3 C -0,7 C 4,8 km/h (1 Bft)
14.01.2015 21:50 2,0 C 85 % 79 % 1020,7 hPa 0,0 l/m 5,0 km/h (1 Bft) SW 225 -0,3 C 0,0 C 3,2 km/h (1 Bft)
14.01.2015 21:55 2,0 C 85 % 78 % 1020,7 hPa 0,0 l/m 4,0 km/h (1 Bft) W 270 -0,3 C 0,4 C 5,3 km/h (1 Bft)
14.01.2015 22:00 2,0 C 85 % 78 % 1020,9 hPa 0,0 l/m 3,5 km/h (1 Bft) S-SW 202 -0,3 C 0,7 C 4,8 km/h (1 Bft)
14.01.2015 22:05 2,0 C 85 % 78 % 1020,9 hPa 0,0 l/m 3,2 km/h (1 Bft) SW 225 -0,3 C 0,8 C 3,7 km/h (1 Bft)
14.01.2015 22:10 2,0 C 84 % 78 % 1020,9 hPa 0,0 l/m 3,2 km/h (1 Bft) S 180 -0,4 C 0,9 C 4,2 km/h (1 Bft)
14.01.2015 22:15 1,9 C 85 % 77 % 1020,9 hPa 0,0 l/m 2,7 km/h (1 Bft) SW 225 -0,3 C 1,1 C 3,4 km/h (1 Bft)
14.01.2015 22:20 1,7 C 84 % 77 % 1020,9 hPa 0,0 l/m 3,2 km/h (1 Bft) W-NW 292 -0,7 C 0,5 C 7,1 km/h (2 Bft)
14.01.2015 22:25 1,8 C 85 % 78 % 1020,9 hPa 0,0 l/m 4,8 km/h (1 Bft) SO 135 -0,4 C -0,5 C 9,5 km/h (2 Bft)
14.01.2015 22:30 1,9 C 85 % 78 % 1020,9 hPa 0,0 l/m 5,0 km/h (1 Bft) W 270 -0,3 C -0,3 C 5,3 km/h (1 Bft)
14.01.2015 22:35 1,9 C 85 % 78 % 1020,9 hPa 0,0 l/m 4,5 km/h (1 Bft) W 270 -0,3 C 0,1 C 5,3 km/h (1 Bft)
14.01.2015 22:40 1,7 C 85 % 78 % 1020,7 hPa 0,0 l/m 3,9 km/h (1 Bft) W 270 -0,5 C 0,4 C 8,4 km/h (2 Bft)
14.01.2015 22:45 1,6 C 85 % 78 % 1020,7 hPa 0,0 l/m 3,4 km/h (1 Bft) S 180 -0,6 C 0,4 C 1,8 km/h (1 Bft)
14.01.2015 22:50 1,4 C 85 % 78 % 1020,7 hPa 0,0 l/m 2,6 km/h (1 Bft) SW 225 -0,8 C 0,7 C 3,4 km/h (1 Bft)
14.01.2015 22:55 1,5 C 85 % 78 % 1020,7 hPa 0,0 l/m 2,1 km/h (1 Bft) W-SW 247 -0,7 C 0,8 C 4,0 km/h (1 Bft)
14.01.2015 23:00 1,5 C 85 % 78 % 1020,7 hPa 0,0 l/m 2,6 km/h (1 Bft) SW 225 -0,7 C 0,6 C 3,4 km/h (1 Bft)
14.01.2015 23:05 1,4 C 85 % 78 % 1020,7 hPa 0,0 l/m 2,6 km/h (1 Bft) S 180 -0,8 C 0,5 C 3,5 km/h (1 Bft)
14.01.2015 23:10 1,3 C 85 % 78 % 1020,7 hPa 0,0 l/m 2,4 km/h (1 Bft) S 180 -0,9 C 0,5 C 0,0 km/h (0 Bft)
14.01.2015 23:15 1,2 C 85 % 78 % 1020,7 hPa 0,0 l/m 1,9 km/h (1 Bft) O-SO 112 -1,0 C 0,4 C 0,0 km/h (0 Bft)
14.01.2015 23:20 1,0 C 85 % 78 % 1020,8 hPa 0,0 l/m 0,6 km/h (0 Bft) NW 315 -1,2 C 0,1 C 0,0 km/h (0 Bft)
14.01.2015 23:25 0,9 C 85 % 78 % 1020,8 hPa 0,0 l/m 0,3 km/h (0 Bft) O-NO 67 -1,3 C -0,2 C 0,0 km/h (0 Bft)
14.01.2015 23:30 0,6 C 86 % 78 % 1020,8 hPa 0,0 l/m 0,0 km/h (0 Bft) N 360 -1,5 C -0,5 C 0,0 km/h (0 Bft)
14.01.2015 23:35 0,4 C 86 % 78 % 1020,8 hPa 0,0 l/m 0,0 km/h (0 Bft) O-SO 112 -1,7 C -0,7 C 0,0 km/h (0 Bft)
14.01.2015 23:40 0,1 C 85 % 78 % 1020,6 hPa 0,0 l/m 0,0 km/h (0 Bft) O-NO 67 -2,1 C -1,0 C 0,0 km/h (0 Bft)
14.01.2015 23:45 0,2 C 86 % 78 % 1020,6 hPa 0,0 l/m 0,0 km/h (0 Bft) W 270 -1,9 C -1,1 C 0,0 km/h (0 Bft)
14.01.2015 23:50 0,0 C 86 % 78 % 1020,6 hPa 0,0 l/m 0,2 km/h (0 Bft) S-SO 157 -2,1 C -1,3 C 0,0 km/h (0 Bft)
14.01.2015 23:55 -0,3 C 86 % 78 % 1020,6 hPa 0,0 l/m 0,2 km/h (0 Bft) O-NO 67 -2,3 C -1,5 C 0,0 km/h (0 Bft)
_ Min-Zeit 01:00 04:45 18:35 02:15 - 23:45 - - 00:50 12:35 23:55
Minimum _ -1,3 C 50 % 0 % 1015,2 hPa - 0,0 km/h (0 Bft) - - -7,7 C -7,9 C 0,0 km/h (0 Bft)
_ Max-Zeit 07:25 14:15 21:50 22:35 23:55 18:05 - - 10:45 11:00 12:10
Maximum _ 5,4 C 88 % 79 % 1020,9 hPa 0,0 l/m 12,9 km/h
SW (3 Bft)
- - 1,2 C 5,4 C 29,1 km/h
W-SW (5 Bft)
Durchschnitt _ 2,6 C 72 % 17 % 1017,4 hPa #0,0 l/m 4,8 km/h (1 Bft) W-SW - -2,0 C 0,3 C 6,4 km/h (2 Bft)